Weather History for Garden City, KS

Change the Weather History Date:

Saturday, December 7, 2013

  Actual Average Record
Temperature  
Mean Temperature 8 °F 33 °F  
Max Temperature 13 °F 46 °F 73 °F (1984)
Min Temperature 2 °F 20 °F -4 °F (2005)
Degree Days  
Heating Degree Days 57 32  
Month to date heating degree days 269 219  
Since 1 July heating degree days 1313 1308  
Cooling Degree Days 0 0  
Month to date cooling degree days 0 0  
Year to date cooling degree days 1591 1298  
Moisture  
Dew Point -2 °F    
Average Humidity 64    
Maximum Humidity 73    
Minimum Humidity 55    
Precipitation  
Precipitation T in 0.02 in 0.46 in (1986)
Month to date precipitation T 0.13  
Year to date precipitation 14.84 19.08  
Sea Level Pressure  
Sea Level Pressure 30.43 in    
Wind  
Wind Speed 13 mph (SE)    
Max Wind Speed 23 mph    
Max Gust Speed 29 mph    
Visibility 10 miles    
Events      
T = Trace of Precipitation, MM = Missing Value Source: NWS Daily Summary

Daily Weather History Graph

Daily Weather History Graph

Search for Another Location

Airport:

Trip Planner

Search our weather history database for the weather conditions in past years. The results will help you decide how hot, cold, wet, or windy it might be!

Date:

Astronomy

Dec. 07, 2013 Rise Set
Actual Time 7:45 AM CST 5:23 PM CST
Civil Twilight 7:16 AM CST 5:52 PM CST
Nautical Twilight 6:43 AM CST 6:25 PM CST
Astronomical Twilight 6:11 AM CST 6:57 PM CST
Moon 11:35 AM CST (12/7) 11:03 PM CST (12/7)
Length of Visible Light 10h 36m
Length of Day
9h 37m
Waxing Crescent, 29% of the Moon is Illuminated
Dec 7
Waxing Crescent
Dec 9
First Quarter
Dec 17
Full
Dec 25
Last Quarter
Jan 1
New

Hourly Weather History & Observations

Time (CST) Temp. Windchill Dew Point Humidity Pressure Visibility Wind Dir Wind Speed Gust Speed Precip Events Conditions
12:54 AM 1.9 °F -9.2 °F -7.1 °F 66% 30.65 in 10.0 mi ENE 5.8 mph - N/A   Clear
1:54 AM 3.9 °F -12.2 °F -6.0 °F 64% 30.61 in 10.0 mi East 11.5 mph - N/A   Mostly Cloudy
2:54 AM 7.0 °F -3.3 °F -6.0 °F 55% 30.62 in 10.0 mi SE 5.8 mph - N/A   Overcast
3:54 AM 7.0 °F -5.7 °F -6.0 °F 55% 30.63 in 10.0 mi SE 8.1 mph - N/A   Overcast
4:54 AM 7.0 °F -7.5 °F -7.1 °F 53% 30.62 in 10.0 mi ESE 10.4 mph - N/A   Overcast
5:54 AM 7.0 °F -8.3 °F -6.0 °F 55% 30.62 in 10.0 mi SE 11.5 mph - N/A   Overcast
6:54 AM 7.0 °F -9.1 °F -5.1 °F 58% 30.61 in 10.0 mi SE 12.7 mph - N/A   Overcast
7:54 AM 6.1 °F -8.7 °F -5.1 °F 60% 30.63 in 10.0 mi SE 10.4 mph - N/A   Overcast
8:54 AM 7.0 °F -10.4 °F -5.1 °F 58% 30.62 in 10.0 mi SE 15.0 mph - N/A   Overcast
9:54 AM 7.0 °F -10.4 °F -5.1 °F 58% 30.63 in 10.0 mi SE 15.0 mph - N/A   Overcast
10:54 AM 8.1 °F -7.0 °F -4.0 °F 58% 30.61 in 10.0 mi SSE 11.5 mph - 0.00 in   Overcast
11:54 AM 9.0 °F -5.9 °F -2.0 °F 61% 30.56 in 7.0 mi SE 11.5 mph - N/A   Overcast
12:54 PM 9.0 °F -4.2 °F -4.0 °F 56% 30.50 in 10.0 mi SSE 9.2 mph - N/A   Overcast
1:54 PM 10.0 °F -3.7 °F -2.0 °F 58% 30.46 in 10.0 mi SE 10.4 mph - N/A   Overcast
2:54 PM 10.0 °F -6.5 °F -2.0 °F 58% 30.40 in 10.0 mi SE 15.0 mph - N/A   Overcast
3:54 PM 10.0 °F -7.6 °F -0.0 °F 64% 30.37 in 9.0 mi SE 17.3 mph - N/A   Overcast
4:54 PM 10.9 °F -6.5 °F 3.0 °F 70% 30.33 in 10.0 mi SE 17.3 mph 25.3 mph N/A   Overcast
5:09 PM 10.4 °F -6.6 °F 3.2 °F 73% 30.18 in 10.0 mi SE 16.1 mph - N/A   Overcast
5:45 PM 10.4 °F -8.2 °F 1.4 °F 67% 30.17 in 10.0 mi SE 19.6 mph - N/A   Overcast
5:54 PM 10.9 °F -7.0 °F 1.0 °F 64% 30.31 in 10.0 mi SE 18.4 mph - N/A   Overcast
6:54 PM 10.9 °F -5.9 °F -0.0 °F 61% 30.29 in 10.0 mi SE 16.1 mph - N/A   Overcast
7:44 PM 12.2 °F -4.3 °F -0.4 °F 57% 30.14 in 10.0 mi SSE 16.1 mph - N/A   Overcast
7:54 PM 12.0 °F -2.7 °F -0.9 °F 56% 30.28 in 10.0 mi SSE 12.7 mph - N/A   Overcast
8:54 PM 12.0 °F -6.0 °F -0.0 °F 59% 30.25 in 10.0 mi SE 19.6 mph 27.6 mph N/A   Overcast
9:54 PM 12.0 °F -5.6 °F -0.0 °F 59% 30.22 in 10.0 mi SE 18.4 mph - N/A   Overcast
10:54 PM 12.9 °F -4.4 °F 1.0 °F 59% 30.19 in 10.0 mi SE 18.4 mph 25.3 mph N/A   Overcast
11:54 PM 12.9 °F -3.4 °F 1.0 °F 59% 30.16 in 10.0 mi SSE 16.1 mph - N/A   Overcast